www.pogodaiklimat.ru
ПОГОДА в Джеламе
Время
(UTC), дата
06 10.11
09 10.11
12 10.11
15 10.11
18 10.11
21 10.11
00 11.11
03 11.11
06 11.11
09 11.11
12 11.11
15 11.11
18 11.11
21 11.11
00 12.11
03 12.11
06 12.11
09 12.11
12 12.11
15 12.11
18 12.11
21 12.11
00 13.11
03 13.11
06 13.11
09 13.11
12 13.11
15 13.11
18 13.11
21 13.11
00 14.11
03 14.11
06 14.11
09 14.11
12 14.11
15 14.11
18 14.11
21 14.11
00 15.11
03 15.11
06 15.11
09 15.11
12 15.11
15 15.11
18 15.11
21 15.11
00 16.11
03 16.11
06 16.11
09 16.11
12 16.11
15 16.11
18 16.11
21 16.11
00 17.11
03 17.11
Ветер
(напр.,м/с)
Видим. Явления Облачность Т
(С)
Тd
(С)
f
(%)
Тe
(С)
Тes
(С)
Комфортность P
(гПа)
Po
(гПа)
Тmin
(С)
Tmax
(С)
R
(мм)
R24
(мм)
S
(см)
СВ 1 4000 м дым ясно +22.0 +13.4 58 +25 +34 комфорт 1015.0 988.0
СВ 1 4000 м мгла ясно +26.0 +11.1 39 +27 +35 жарко 1013.0 986.5
СВ 1 4000 м дым 5/0
[Ci fib]
+26.0 +17.3 59 +30 +30 душно 1011.7 985.2 +28.5
штиль 0 4000 м дым 5/0
[Ac trans Ci fib]
+19.0 +13.8 72 +20 +20 тепло 1012.6 985.5
штиль 0 4000 м дым 4/0
[Ac As]
+16.5 +12.9 79 +16 +16 тепло 1013.6 986.3
штиль 0 4000 м дым 4/0
[Ac As]
+14.5 +11.7 83 +14 +14 тепло 1013.3 985.9
штиль 0 2000 м дым 3/0
[Ac As]
+13.0 +10.1 83 +13 +13 тепло 1012.2 984.7
штиль 0 50 км ?/? +13.5 +11.6 88 +13 +14 тепло 1013.1 985.6 +12.3
штиль 0 2000 м дым 5/0
[As op]
+20.0 +13.0 64 +22 +28 комфорт 1014.1 987.1
ЮЗ 1 4000 м дым 5/0
[Ac As]
+24.0 +13.9 53 +26 +31 жарко 1012.1 985.4
штиль 0 2000 м дым 8/0
[]
+23.5 +16.2 64 +27 +27 душно 1011.1 984.4 +25.0
штиль 0 2000 м дымка 6/0
[Ac trans Ci fib]
+18.0 +14.6 81 +18 +18 тепло 1012.8 985.6
штиль 0 4000 м дымка 5/0
[Cs]
+16.5 +13.9 85 +16 +16 тепло 1013.3 986.0
штиль 0 50 км ?/? +14.5 +11.7 83 +14 +14 тепло 1012.8 985.4
штиль 0 2000 м дымка 10/3 1200 м
[Sc As op]
+15.0 +13.2 89 +15 +15 тепло 1012.7 985.3
штиль 0 2000 м дымка 6/0
[]
+15.5 +12.8 84 +15 +16 тепло 1015.2 987.8 +11.7
штиль 0 2000 м дым 9/3 1200 м
[Sc As op]
+20.0 +14.0 68 +22 +24 комфорт 1015.0 988.0
СЗ 2 2000 м дым 8/3 1200 м
[Sc As op]
+25.0 +13.1 48 +27 +29 жарко 1013.1 986.5
штиль 0 4000 м дым 8/0
[As op]
+25.0 +17.9 65 +29 +29 душно 1012.2 985.6 +26.5
штиль 0 4000 м дым 8/4 1200 м
[Sc Ac As]
+19.5 +13.4 68 +21 +21 комфорт 1014.2 986.9
штиль 0 4000 м дым 6/0
[Ac As]
+17.5 +13.1 75 +18 +18 тепло 1015.6 988.3
штиль 0 2000 м дымка 4/0
[Ac trans]
+16.0 +13.3 84 +16 +16 тепло 1016.3 1000.0
штиль 0 2000 м дымка 5/0
[Ac trans]
+15.0 +13.2 89 +15 +15 тепло 1015.8 988.3
штиль 0 2000 м дым 4/0
[Ac trans]
+16.0 +12.4 79 +16 +17 тепло 1017.5 990.0 +14.7
СЗ 1 4000 м дым 5/0
[Ac trans]
+23.0 +14.6 59 +27 +33 душно 1017.6 990.7
СЗ 1 4000 м мгла 5/0
[Ac trans]
+26.5 +11.8 40 +28 +33 жарко 1015.4 1000.0
штиль 0 4000 м дым 6/0
[Ac trans]
+24.0 +12.8 50 +26 +26 жарко 1014.9 988.2 +26.8
штиль 0 4000 м дым 5/0
[As op]
+19.5 +13.4 68 +21 +21 комфорт 1014.9 987.9
штиль 0 4000 м дым 5/0
[As op]
+18.0 +12.7 71 +18 +18 тепло 1014.5 987.3
штиль 0 4000 м дым 5/0
[As op]
+17.0 +11.5 70 +17 +17 тепло 1015.8 988.5
штиль 0 4000 м дым 6/0
[As op]
+16.0 +11.4 74 +16 +16 тепло 1016.7 989.2
штиль 0 4000 м дым 9/6 300 м
[Sc Ac As]
+15.0 +11.3 79 +15 +15 тепло 1017.7 990.1 +14.5
штиль 0 4000 м дым 8/0
[Ac trans Ci fib]
+21.5 +12.8 58 +24 +31 комфорт 1018.5 991.5
штиль 0 4000 м мгла 8/0
[Ac trans Ci fib]
+26.0 +12.2 42 +27 +33 жарко 1016.1 1000.0
ЮВ 1 4000 м дым 9/5 1200 м
[Sc As op]
+23.5 +15.2 60 +26 +26 жарко 1015.9 989.2 +26.5
штиль 0 4000 м дым 9/5 1200 м
[Sc As op]
+21.0 +15.1 69 +24 +24 комфорт 1017.2 1000.0
штиль 0 4000 м слаб. дождь 10/6 1200 м
[Sc As op]
+19.5 +14.4 72 +21 +21 комфорт 1018.1 990.9 0.0
СЗ 1 4000 м дым {дождь} 9/5 1200 м
[Sc As op]
+18.5 +14.2 76 +21 +21 комфорт 1017.6 1000.0 0.0
штиль 0 4000 м дым 9/5 1200 м
[Sc As op]
+17.0 +13.5 80 +17 +17 тепло 1016.5 989.2
штиль 0 4000 м дым 6/0
[Ac trans]
+17.0 +13.5 80 +17 +18 тепло 1017.9 990.5 +14.7 0.0
СЗ 1 4000 м дым 4/0
[Ac trans]
+22.5 +15.9 66 +27 +33 душно 1018.8 991.9
штиль 0 4000 м дым 8/3 1200 м
[Sc Ac As]
+25.0 +14.1 51 +27 +30 жарко 1016.5 1000.0
штиль 0 4000 м дым 8/0
[Ac trans]
+24.5 +16.4 61 +28 +28 душно 1014.8 988.2 +26.0
штиль 0 4000 м дым 5/0
[Ac trans]
+21.0 +15.1 69 +24 +24 комфорт 1015.6 1000.0
штиль 0 4000 м дым 8/4 1200 м
[Sc As op]
+19.5 +14.4 72 +21 +21 комфорт 1016.2 989.1
СЗ 1 4000 м дым {дождь} 9/5 1200 м
[Sc As op]
+18.5 +14.2 76 +21 +21 комфорт 1017.6 1000.0 0.0
штиль 0 4000 м дым 9/5 1200 м
[Sc As op]
+18.0 +14.6 81 +18 +18 тепло 1015.5 988.3
штиль 0 4000 м в посл. час дождь 10/8 1200 м
[Sc As op]
+18.0 +15.5 85 +18 +18 тепло 1017.9 990.6 +16.7 0.0 0.0
штиль 0 4000 м дым 9/5 1200 м
[Sc As op]
+20.5 +15.5 73 +23 +25 комфорт 1018.4 991.3
штиль 0 4000 м дым 9/5 1200 м
[Sc As op]
+23.0 +15.6 63 +27 +29 душно 1017.5 990.4
штиль 0 10 км 6/3 1200 м
[Sc Ac trans]
+23.0 +16.5 67 +28 +28 душно 1017.0 990.1 +23.8
штиль 0 4000 м дым ясно +19.0 +15.6 81 +20 +20 тепло 1018.4 1000.0
З 1 4000 м дым ясно +16.5 +13.9 85 +18 +18 тепло 1019.0 991.5
СЗ 2 4000 м дым 3/3 300 м
[Sc]
+15.5 +12.8 84 +16 +16 тепло 1018.3 1000.0
СЗ 1 4000 м дым 3/0
[Ac trans]
+15.0 +12.3 84 +15 +15 тепло 1017.9 990.3
СЗ 1 10 км 3/0
[Ac trans]
+15.0 +11.3 79 +16 +17 тепло 1018.7 991.1 +14.5
Местоположение метеостанции Джелам (Пакистан): широта 32.93 долгота 73.72 высота над уровнем моря 234 м.
В архиве по умолчанию представлена погода в Джеламе за последнюю неделю. Архивные данные за месяц целиком и за предыдущие месяцы, начиная с января 2011 года, Вы можете получить, выбрав интересующий диапазон дат из раскрывающегося списка и нажав кнопку "Найти!".
*Определитесь, кто Вы:
Внимание! Время в таблицах - всемирное. Для получения местного времени необходимо прибавить поправку, которая равна 5 ч.
Смотрите также архив погоды в соседних городах и на ближайших метеорологических станциях:
Партнеры нашего сайта:      
Пояснения к столбцам:
  • Ветер - указаны скорость ветра в м/с - средняя за 10 мин, порывы в срок и между сроками (в фигурных скобках) и направление, откуда дует ветер: С - северный,
  • СВ - северо-восточный, В - восточный, ЮВ - юго-восточный, Ю - южный, ЮЗ - юго-западный, З - западный, СЗ - северо-западный.
  • Видимость - горизонтальная дальность видимости в метрах или километрах. При видимости от 1 до 10 км при отсутствии осадков обычно наблюдается дымка, при ухудшении видимости до 1 км и менее - туман. В сухую погоду видимость может ухудшаться дымом, пылью или мглою.
  • Явления - указаны атмосферные явления, наблюдавшиеся в срок или в последний час перед сроком; фигурными скобками обозначены явления, наблюдавшиеся между сроками (за 1-3 часа до срока); квадратными скобками обозначены град или гололедные отложения с указанием их диаметра в мм.
  • Облачность - указаны через наклонную черту общая и нижняя облачность в баллах и высота нижней границы облаков в метрах; квадратными скобками обозначены формы облаков: Ci - перистые, Cs - перисто-слоистые, Cc - перисто-кучевые, Ac - высококучевые, As - высокослоистые, Sc - слоисто-кучевые, Ns - слоисто-дождевые, Cu - кучевые, Cb - кучево-дождевые. Подробнее классификацию облаков см. в Атласе облаков (PDF).
  • T - Температура воздуха - температура, измеренная на высоте 2 м над землей.
  • Td - Температура точки росы - температура, при понижении до которой содержащийся в воздухе водяной пар достигнет насыщения.
  • f - Относительная влажность воздуха - влажноcть воздуха, измеренная на высоте 2 м над землей.
  • Te - Эффективная температура - температура, которую ощущает одетый по сезону человек в тени. Характеристика душности погоды. При расчете учитывается влияние влажности воздуха и скорости ветра на теплоощущения человека.
  • Tes - Эффективная температура на солнце - температура, которую ощущает человек, с поправкой на солнечный нагрев. Характеристика знойности погоды. Зависит от высоты солнца над горизонтом, облачности и скорости ветра. Ночью, в пасмурную погоду, а также при ветре 12 м/с и более поправка равна нулю.
  • P - Атмосферное давление - приведенное к уровню моря атмосферное давление.
  • Po - Атмосферное давление - измеренное на уровне метеостанции атмосферное давление.
  • Tmin - Минимальная температура - минимум температуры воздуха на высоте 2 м над землей.
  • Tmax - Максимальная температура - максимум температуры воздуха на высоте 2 м над землей.
  • R - Количество осадков - Количество выпавших осадков за период времени, мм. При наведении курсора мыши на число - период времени, за который выпало указанное количество осадков.
  • R24 - Количество осадков - Количество выпавших осадков за 24 часа, мм.
  • S - Снежный покров - Высота снежного покрова, см. При наведении курсора мыши на число - состояние снежного покрова и степень покрытия местности в баллах.